AV279 Weather Reports


time (UTC)temp
F
wind
direction
speed
knots
gust
knots
rain 1hr
in
rain 24hr
in
rain mn
in
humidity
%
barometer
mb
20260507172019 55 23 0.9 2.6 0.00 0.00 0.00 77 1015.5
20260507171051 55 23 2.6 4.3 0.00 0.00 0.00 77 1015.6
20260507170019 55 90 0.9 2.6 0.00 0.00 0.00 77 1015.6
20260507165019 55 0.0 0.9 0.00 0.00 0.00 78 1015.6
20260507164039 55 68 1.7 3.5 0.00 0.00 0.00 78 1015.5
20260507163218 55 23 1.7 3.5 0.00 0.00 0.00 78 1015.6
20260507162219 55 23 1.7 2.6 0.00 0.00 0.00 78 1015.6
20260507161219 55 0 1.7 2.6 0.00 0.00 0.00 78 1015.6
20260507160219 55 45 1.7 3.5 0.00 0.00 0.00 77 1015.7
20260507155250 55 23 3.5 7.0 0.00 0.00 0.00 77 1015.5
20260507154219 55 45 2.6 3.5 0.00 0.00 0.00 77 1015.6
20260507153219 56 0 2.6 4.3 0.00 0.00 0.00 77 1015.6
20260507152219 56 23 3.5 7.0 0.00 0.00 0.00 77 1015.6
20260507151219 56 45 1.7 3.5 0.00 0.00 0.00 77 1015.5
20260507150219 56 338 1.7 2.6 0.00 0.00 0.00 76 1015.6
20260507145219 56 315 0.9 2.6 0.00 0.00 0.00 76 1015.6
20260507144219 56 23 3.5 4.3 0.00 0.00 0.00 75 1015.6
20260507143218 56 23 0.9 5.2 0.00 0.00 0.00 75 1015.7
20260507142218 57 0 3.5 8.7 0.00 0.00 0.00 74 1015.7
20260507141240 57 23 3.5 6.1 0.00 0.00 0.00 74 1015.6
20260507140240 57 45 1.7 2.6 0.00 0.00 0.00 75 1015.7
20260507135219 57 0 3.5 7.0 0.00 0.00 0.00 75 1015.7
20260507134219 57 45 1.7 4.3 0.00 0.00 0.00 75 1015.7
20260507133426 57 23 3.5 7.0 0.00 0.00 0.00 75 1015.7
20260507132419 57 45 4.3 7.0 0.00 0.00 0.00 74 1015.6
20260507131438 58 0 3.5 7.8 0.00 0.00 0.00 74 1015.8
20260507130418 57 23 0.9 2.6 0.00 0.00 0.00 74 1015.8
20260507125419 58 23 1.7 2.6 0.00 0.00 0.00 75 1015.7
20260507124645 57 23 4.3 7.0 0.00 0.00 0.00 75 1015.8
20260507123918 57 45 6.1 7.8 0.00 0.00 0.00 76 1015.8
20260507122918 57 315 2.6 4.3 0.00 0.00 0.00 77 1015.7
20260507121940 57 0 1.7 4.3 0.00 0.00 0.00 76 1015.7
20260507120950 57 180 0.9 1.7 0.00 0.00 0.00 75 1015.6
20260507115950 57 23 0.9 2.6 0.00 0.00 0.00 75 1015.6
20260507114918 58 270 0.9 1.7 0.00 0.00 0.00 74 1015.6
20260507113918 58 338 1.7 3.5 0.00 0.00 0.00 73 1015.5
20260507112940 59 68 0.9 1.7 0.00 0.00 0.00 72 1015.6
20260507111918 59 270 1.7 2.6 0.00 0.00 0.00 70 1015.6
20260507110949 59 0.0 0.9 0.00 0.00 0.00 72 1015.7
20260507105918 58 0.0 0.9 0.00 0.00 0.00 73 1015.6
20260507104931 57 0.0 0.9 0.00 0.00 0.00 73 1015.8
20260507103918 58 338 1.7 3.5 0.00 0.00 0.00 73 1015.8
20260507102929 58 23 1.7 2.6 0.00 0.00 0.00 75 1015.9
20260507101929 57 293 1.7 2.6 0.00 0.00 0.00 75 1015.8
20260507100918 57 135 1.7 2.6 0.00 0.00 0.00 77 1015.8
20260507095940 57 315 0.9 1.7 0.00 0.00 0.00 78 1015.6
20260507094920 56 23 1.7 3.5 0.00 0.00 0.00 77 1015.6
20260507093929 56 0 0.9 2.6 0.00 0.00 0.00 78 1015.6
20260507092929 56 0.0 0.9 0.00 0.00 0.00 79 1015.5
20260507091918 56 0.0 0.9 0.00 0.00 0.00 79 1015.4
20260507090941 55 0.0 0.9 0.00 0.00 0.00 81 1015.3
20260507085918 55 0.0 0.9 0.00 0.00 0.00 80 1015.3
20260507084920 55 338 0.9 1.7 0.00 0.00 0.00 80 1015.4
20260507084010 54 0.0 0.9 0.00 0.00 0.00 81 1015.4
20260507082940 54 0 0.9 1.7 0.00 0.00 0.00 81 1015.3
20260507081920 54 113 0.9 2.6 0.00 0.00 0.00 81 1015.0
20260507080920 53 0.0 0.9 0.00 0.00 0.00 81 1015.1
20260507075918 54 68 2.6 3.5 0.00 0.00 0.00 81 1015.0
20260507074920 53 0 2.6 3.5 0.00 0.00 0.00 82 1015.1
20260507073920 53 315 1.7 2.6 0.00 0.00 0.00 82 1015.0
20260507072931 53 45 2.6 3.5 0.00 0.00 0.00 82 1015.0
20260507071920 53 338 1.7 3.5 0.00 0.00 0.00 82 1014.9
20260507070929 53 23 0.9 1.7 0.00 0.00 0.00 83 1014.8
20260507065931 52 315 0.9 2.6 0.00 0.00 0.00 83 1014.8
20260507064920 52 0 0.9 2.6 0.00 0.00 0.00 84 1014.6
20260507063920 51 23 0.9 1.7 0.00 0.00 0.00 86 1014.6
20260507063011 51 45 1.7 2.6 0.00 0.00 0.00 87 1014.7
20260507061931 51 0.0 0.0 0.00 0.00 0.00 88 1014.7
20260507060920 51 0.0 0.0 0.00 0.00 0.00 88 1014.7
20260507055930 51 0.0 0.0 0.00 0.00 0.00 88 1014.7
20260507054920 50 0.0 0.0 0.00 0.00 0.00 88 1014.5
20260507053930 50 0.0 0.0 0.00 0.00 0.00 88 1014.3
20260507052920 50 0.0 0.0 0.00 0.00 0.00 88 1014.3
20260507052225 50 0.0 0.0 0.00 0.00 0.00 88 1014.2
20260507051520 50 0.0 0.9 0.00 0.00 0.00 88 1014.2
20260507050530 50 225 0.9 0.9 0.00 0.00 0.00 89 1014.1
20260507045520 50 0.0 0.0 0.00 0.00 0.00 89 1013.8
20260507044530 50 0.0 0.0 0.00 0.00 0.00 89 1013.8
20260507043530 50 0.0 0.0 0.00 0.00 0.00 89 1013.7
20260507042520 50 0.0 0.0 0.00 0.00 0.00 89 1013.8
20260507041519 50 0.0 0.0 0.00 0.00 0.00 89 1013.7
20260507040540 50 0.0 0.0 0.00 0.00 0.00 89 1013.7
20260507035520 49 0.0 0.0 0.00 0.00 0.00 89 1013.7
20260507034530 49 0.0 0.0 0.00 0.00 0.00 88 1013.6
20260507033541 49 0.0 0.0 0.00 0.00 0.00 88 1013.4
20260507032539 49 0.0 0.0 0.00 0.00 0.00 88 1013.5
20260507031540 49 0.0 0.0 0.00 0.00 0.00 88 1013.5
20260507030520 49 0.0 0.0 0.00 0.00 0.00 88 1013.5
20260507025530 49 0.0 0.0 0.00 0.00 0.00 87 1013.4
20260507024530 49 0.0 0.9 0.00 0.00 0.00 87 1013.4
20260507023530 49 0.0 0.9 0.00 0.00 0.00 87 1013.4
20260507022519 49 0.0 0.0 0.00 0.00 0.00 87 1013.4
20260507021519 50 338 0.9 1.7 0.00 0.00 0.00 87 1013.3
20260507020530 50 0.0 0.0 0.00 0.00 0.00 87 1013.3
20260507015550 50 0.0 0.0 0.00 0.00 0.00 86 1013.2
20260507014519 50 0 0.9 1.7 0.00 0.00 0.00 86 1013.2
20260507013530 50 0.0 0.0 0.00 0.00 0.00 86 1013.2
20260507012519 50 0.0 0.9 0.00 0.00 0.00 86 1013.3
20260507011550 50 0.0 0.0 0.00 0.00 0.00 85 1013.2
20260507010530 51 0.0 0.9 0.00 0.00 0.00 85 1013.2
20260507005550 51 338 1.7 3.5 0.00 0.00 0.00 85 1013.2
20260507004519 51 0 1.7 3.5 0.00 0.00 0.00 85 1013.2
20260507003519 51 23 1.7 2.6 0.00 0.00 0.00 85 1013.3
20260507002540 51 315 0.9 2.6 0.00 0.00 0.00 84 1013.2
20260507001519 51 23 2.6 7.8 0.00 0.00 0.00 84 1013.2
20260507000539 51 45 1.7 4.3 0.00 0.00 0.00 84 1013.2
20260506235520 51 45 2.6 5.2 0.00 0.00 0.00 84 1013.2
20260506234520 51 0 4.3 7.8 0.00 0.00 0.00 84 1013.0
20260506233520 51 23 3.5 7.0 0.00 0.00 0.00 84 1013.1
20260506232520 52 23 2.6 5.2 0.00 0.00 0.00 84 1013.0
20260506231550 52 45 1.7 3.5 0.00 0.00 0.00 84 1013.1
20260506230519 51 0 3.5 7.8 0.00 0.00 0.00 84 1013.0
20260506225520 51 338 2.6 7.0 0.00 0.00 0.00 84 1012.9
20260506224520 51 0 4.3 7.0 0.00 0.00 0.00 84 1013.0
20260506223519 51 23 2.6 4.3 0.00 0.00 0.00 84 1013.0
20260506222519 51 0 2.6 6.1 0.00 0.00 0.00 84 1012.8
20260506221530 51 0 2.6 5.2 0.00 0.00 0.00 85 1012.8
20260506220519 50 338 1.7 4.3 0.00 0.00 0.00 85 1012.8
20260506215519 50 23 2.6 5.2 0.00 0.00 0.00 85 1012.7
20260506214530 49 45 2.6 5.2 0.00 0.00 0.00 85 1012.7
20260506213530 49 338 0.9 1.7 0.00 0.00 0.00 85 1012.8
20260506212519 49 0 1.7 4.3 0.00 0.00 0.00 84 1012.7
20260506211551 49 23 1.7 3.5 0.00 0.00 0.00 84 1012.6
20260506210530 49 315 1.7 3.5 0.00 0.00 0.00 83 1012.7
20260506205520 49 0.0 2.6 0.00 0.00 0.00 83 1012.7
20260506204519 49 315 0.9 2.6 0.00 0.00 0.00 83 1012.7
20260506203519 49 45 3.5 7.0 0.00 0.00 0.00 82 1012.7
20260506202519 49 23 2.6 7.0 0.00 0.00 0.00 82 1012.6
20260506201530 50 338 1.7 3.5 0.00 0.00 0.00 81 1012.6
20260506200520 50 0 2.6 4.3 0.00 0.00 0.00 80 1012.5
20260506195520 50 23 2.6 4.3 0.00 0.00 0.00 80 1012.4
20260506194519 51 23 3.5 6.1 0.00 0.00 0.00 79 1012.2
20260506193519 51 0 3.5 7.0 0.00 0.00 0.00 79 1012.2
20260506192551 51 23 4.3 5.2 0.00 0.00 0.00 79 1012.1
20260506191530 52 23 1.7 2.6 0.00 0.00 0.00 79 1012.1
20260506190600 52 23 5.2 7.8 0.00 0.00 0.00 78 1012.0
20260506185530 52 23 4.3 7.8 0.00 0.00 0.00 78 1011.9
20260506184530 53 315 5.2 9.6 0.00 0.00 0.00 77 1011.9
20260506183519 53 0 3.5 7.0 0.00 0.00 0.00 77 1011.8
20260506182519 53 315 3.5 5.2 0.00 0.00 0.00 77 1011.9
20260506181551 53 0 2.6 9.6 0.00 0.00 0.00 77 1011.7
20260506180519 54 315 3.5 6.1 0.00 0.00 0.00 76 1011.6
20260506175540 54 23 4.3 9.6 0.00 0.00 0.00 76 1011.5
20260506174530 54 23 3.5 7.8 0.00 0.00 0.00 75 1011.4
20260506173519 54 0 2.6 7.0 0.00 0.00 0.00 74 1011.2
20260506172540 55 23 5.2 9.6 0.00 0.00 0.00 74 1011.3